D8954 Weather Reports


Display with metric or nautical units.
time (UTC)temp
F
wind
direction
speed
MPH
gust
MPH
rain 1hr
in
rain 24hr
in
rain mn
in
humidity
%
barometer
mb
20260510105012 69 139 4.0 10.0 0.00 0.00 0.00 59 1010.4
20260510104511 68 109 2.0 10.0 0.00 0.00 0.00 62 1010.4
20260510104012 68 116 4.0 8.0 0.00 0.00 0.00 62 1010.4
20260510103511 69 150 2.0 6.0 0.00 0.00 0.00 62 1010.5
20260510102511 67 172 3.0 10.0 0.00 0.00 0.00 63 1010.5
20260510102012 67 134 2.0 10.0 0.00 0.00 0.00 65 1010.5
20260510101511 67 116 4.0 8.0 0.00 0.00 0.00 64 1010.6
20260510101011 67 82 3.0 8.0 0.00 0.00 0.00 65 1010.6
20260510100514 67 146 0.0 3.0 0.00 0.00 0.00 66 1010.7
20260510100011 67 153 2.0 6.0 0.00 0.00 0.00 64 1010.7
20260510095511 66 94 3.0 7.0 0.00 0.00 0.00 65 1010.8
20260510095011 66 114 3.0 7.0 0.00 0.00 0.00 66 1010.8
20260510094511 66 119 3.0 7.0 0.00 0.00 0.00 68 1010.9
20260510094012 66 129 2.0 8.0 0.00 0.00 0.00 66 1011.0
20260510093511 65 58 2.0 5.0 0.00 0.00 0.00 68 1011.1
20260510093012 64 129 2.0 7.0 0.00 0.00 0.00 66 1011.1
20260510092511 65 124 3.0 7.0 0.00 0.00 0.00 68 1011.1
20260510092012 64 120 2.0 5.0 0.00 0.00 0.00 70 1011.2
20260510091512 64 103 5.0 7.0 0.00 0.00 0.00 68 1011.2
20260510091011 64 87 2.0 3.0 0.00 0.00 0.00 71 1011.3
20260510090511 63 67 3.0 5.0 0.00 0.00 0.00 72 1011.4
20260510090011 63 96 5.0 9.0 0.00 0.00 0.00 70 1011.5
20260510085511 62 111 1.0 8.0 0.00 0.00 0.00 70 1011.5
20260510085012 62 135 3.0 9.0 0.00 0.00 0.00 69 1011.5
20260510084511 62 68 1.0 5.0 0.00 0.00 0.00 72 1011.5
20260510084012 62 68 3.0 6.0 0.00 0.00 0.00 71 1011.6
20260510083011 61 60 2.0 3.0 0.00 0.00 0.00 71 1011.6
20260510082015 60 43 3.0 5.0 0.00 0.00 0.00 72 1011.6
20260510081511 61 42 3.0 3.0 0.00 0.00 0.00 73 1011.7
20260510081012 60 99 3.0 6.0 0.00 0.00 0.00 72 1011.7
20260510080512 60 125 3.0 7.0 0.00 0.00 0.00 73 1011.8
20260510080011 60 133 2.0 6.0 0.00 0.00 0.00 72 1011.9
20260510075511 59 110 2.0 6.0 0.00 0.00 0.00 73 1011.8
20260510075012 59 91 2.0 6.0 0.00 0.00 0.00 74 1011.8
20260510074511 59 50 3.0 6.0 0.00 0.00 0.00 76 1011.8
20260510074012 58 144 2.0 3.0 0.00 0.00 0.00 76 1012.0
20260510073511 57 95 2.0 3.0 0.00 0.00 0.00 75 1012.0
20260510073011 57 151 2.0 6.0 0.00 0.00 0.00 75 1012.0
20260510072511 57 139 3.0 6.0 0.00 0.00 0.00 77 1012.0
20260510072013 56 163 2.0 3.0 0.00 0.00 0.00 75 1012.0
20260510071509 57 116 4.0 6.0 0.00 0.00 0.00 77 1012.1
20260510071009 57 147 3.0 6.0 0.00 0.00 0.00 76 1012.2
20260510070509 57 90 3.0 6.0 0.00 0.00 0.00 77 1012.2
20260510070009 56 40 3.0 5.0 0.00 0.00 0.00 76 1012.3
20260510065510 56 65 3.0 5.0 0.00 0.00 0.00 76 1012.2
20260510065009 56 56 2.0 3.0 0.00 0.00 0.00 78 1012.3
20260510064509 55 86 1.0 3.0 0.00 0.00 0.00 77 1012.3
20260510064009 55 80 3.0 7.0 0.00 0.00 0.00 78 1012.3
20260510063510 55 96 2.0 3.0 0.00 0.00 0.00 79 1012.3
20260510063009 54 86 1.0 3.0 0.00 0.00 0.00 80 1012.3
20260510062510 54 88 3.0 3.0 0.00 0.00 0.00 80 1012.2
20260510061509 53 73 3.0 6.0 0.00 0.00 0.00 80 1012.3
20260510061010 53 96 3.0 6.0 0.00 0.00 0.00 80 1012.4
20260510060509 53 100 2.0 6.0 0.00 0.00 0.00 82 1012.4
20260510060009 53 63 2.0 3.0 0.00 0.00 0.00 81 1012.3
20260510055510 52 107 2.0 5.0 0.00 0.00 0.00 82 1012.4
20260510055009 52 73 1.0 3.0 0.00 0.00 0.00 82 1012.4
20260510054509 52 92 2.0 6.0 0.00 0.00 0.00 83 1012.5
20260510054009 52 70 2.0 3.0 0.00 0.00 0.00 83 1012.5
20260510053509 51 113 0.0 2.0 0.00 0.00 0.00 83 1012.6
20260510053009 51 113 0.0 2.0 0.00 0.00 0.00 83 1012.6
20260510052508 51 113 1.0 3.0 0.00 0.00 0.00 84 1012.5
20260510051509 50 137 0.0 2.0 0.00 0.00 0.00 84 1012.7
20260510051009 50 137 1.0 1.0 0.00 0.00 0.00 83 1012.8
20260510050509 50 112 1.0 2.0 0.00 0.00 0.00 83 1012.7
20260510050009 51 46 0.0 2.0 0.00 0.00 0.00 83 1012.7
20260510045009 51 65 2.0 3.0 0.00 0.00 0.00 82 1012.8
20260510044509 50 76 1.0 2.0 0.00 0.00 0.00 83 1012.8
20260510044009 50 77 0.0 1.0 0.00 0.00 0.00 83 1012.8
20260510043509 50 77 1.0 2.0 0.00 0.00 0.00 84 1012.8
20260510042009 49 77 0.0 1.0 0.00 0.00 0.00 85 1012.8
20260510041509 49 77 0.0 2.0 0.00 0.00 0.00 85 1012.8
20260510040510 49 78 0.0 2.0 0.00 0.00 0.00 85 1013.0
20260510040009 49 78 1.0 2.0 0.00 0.00 0.00 85 1013.0
20260510035510 49 78 0.0 2.0 0.00 0.00 0.00 85 1013.1
20260510035009 49 78 0.0 1.0 0.00 0.00 0.00 86 1013.0
20260510034509 49 78 1.0 2.0 0.00 0.00 0.00 85 1013.0
20260510034009 49 78 0.0 2.0 0.00 0.00 0.00 85 1013.1
20260510033509 49 78 0.0 2.0 0.00 0.00 0.00 84 1013.1
20260510033009 49 78 0.0 1.0 0.00 0.00 0.00 84 1013.1
20260510032509 49 78 1.0 2.0 0.00 0.00 0.00 84 1013.1
20260510032008 49 78 0.0 2.0 0.00 0.00 0.00 85 1013.1
20260510031509 49 79 1.0 1.0 0.00 0.00 0.00 84 1013.1
20260510030509 50 79 1.0 2.0 0.00 0.00 0.00 83 1013.3
20260510030009 50 79 1.0 1.0 0.00 0.00 0.00 83 1013.3
20260510025510 50 78 1.0 3.0 0.00 0.00 0.00 83 1013.3
20260510024509 50 69 1.0 2.0 0.00 0.00 0.00 83 1013.4
20260510023508 50 71 1.0 2.0 0.00 0.00 0.00 83 1013.4
20260510022508 50 69 1.0 3.0 0.00 0.00 0.00 83 1013.4
20260510022009 50 69 2.0 3.0 0.00 0.00 0.00 83 1013.4
20260510021009 50 72 1.0 2.0 0.00 0.00 0.00 83 1013.4
20260510020509 50 72 0.0 1.0 0.00 0.00 0.00 84 1013.5
20260510020009 50 72 0.0 2.0 0.00 0.00 0.00 83 1013.5
20260510015009 50 72 0.0 2.0 0.00 0.00 0.00 82 1013.5
20260510014509 51 72 1.0 3.0 0.00 0.00 0.00 82 1013.6
20260510014009 51 49 1.0 3.0 0.00 0.00 0.00 82 1013.6
20260510013509 51 23 1.0 3.0 0.00 0.00 0.00 82 1013.7
20260510013012 51 11 2.0 3.0 0.00 0.00 0.00 82 1013.7
20260510012509 51 52 1.0 3.0 0.00 0.00 0.00 82 1013.7
20260510012008 51 59 1.0 3.0 0.00 0.00 0.00 82 1013.8
20260510011509 51 75 0.0 2.0 0.00 0.00 0.00 82 1013.9
20260510011009 51 75 0.0 2.0 0.00 0.00 0.00 81 1013.9
20260510010009 51 75 0.0 2.0 0.00 0.00 0.00 81 1013.8
20260510005510 51 76 1.0 3.0 0.00 0.00 0.00 81 1013.9
20260510005009 51 80 1.0 2.0 0.00 0.00 0.00 80 1013.9
20260510004509 52 81 1.0 2.0 0.00 0.00 0.00 80 1013.9
20260510003509 52 81 1.0 3.0 0.00 0.00 0.00 79 1014.0
20260510002509 53 88 1.0 3.0 0.00 0.00 0.00 78 1014.2
20260510002010 53 104 1.0 1.0 0.00 0.00 0.00 78 1014.3
20260510001509 53 104 2.0 3.0 0.00 0.00 0.00 78 1014.4
20260510000509 53 115 2.0 3.0 0.00 0.00 0.00 77 1014.6
20260510000009 53 84 3.0 9.0 0.00 0.00 0.00 77 1014.6
20260509235509 54 86 1.0 3.0 0.00 0.00 0.00 77 1014.6
20260509235009 53 82 3.0 8.0 0.00 0.00 0.00 77 1014.6
20260509234009 54 140 1.0 3.0 0.00 0.00 0.00 75 1014.6
20260509233509 54 118 1.0 3.0 0.00 0.00 0.00 76 1014.7
20260509233009 54 132 1.0 2.0 0.00 0.00 0.00 76 1014.7
20260509232509 54 124 1.0 2.0 0.00 0.00 0.00 76 1014.7
20260509232008 54 128 1.0 2.0 0.00 0.00 0.00 76 1014.7
20260509231509 54 359 0.0 2.0 0.00 0.00 0.00 77 1014.7
20260509231009 54 348 0.0 1.0 0.00 0.00 0.00 76 1014.7
20260509230509 55 348 0.0 1.0 0.00 0.00 0.00 75 1014.7
20260509230009 55 348 1.0 2.0 0.00 0.00 0.00 75 1014.8
20260509225510 55 348 0.0 0.0 0.00 0.00 0.00 75 1014.8
20260509225008 55 348 0.0 2.0 0.00 0.00 0.00 75 1014.9
20260509224509 54 348 0.0 2.0 0.00 0.00 0.00 77 1015.0
20260509224009 55 348 0.0 1.0 0.00 0.00 0.00 76 1015.0
20260509222509 55 348 0.0 1.0 0.00 0.00 0.00 76 1015.1
20260509222009 56 348 1.0 3.0 0.00 0.00 0.00 74 1015.1
20260509221009 55 5 1.0 3.0 0.00 0.00 0.00 76 1015.1
20260509220509 56 5 1.0 5.0 0.00 0.00 0.00 75 1015.1
20260509220009 54 338 1.0 3.0 0.00 0.00 0.00 78 1015.3
20260509215509 54 338 1.0 2.0 0.00 0.00 0.00 78 1015.3
20260509214009 54 330 1.0 2.0 0.00 0.00 0.00 78 1015.2
20260509213509 54 326 0.0 2.0 0.00 0.00 0.00 78 1015.1
20260509213009 54 321 2.0 3.0 0.00 0.00 0.00 79 1015.1
20260509212509 54 318 1.0 2.0 0.00 0.00 0.00 79 1015.1
20260509212009 54 317 0.0 2.0 0.00 0.00 0.00 79 1015.2
20260509211508 54 317 0.0 1.0 0.00 0.00 0.00 79 1015.3
20260509211009 54 317 1.0 2.0 0.00 0.00 0.00 77 1015.2
20260509210508 55 317 2.0 3.0 0.00 0.00 0.00 76 1015.3
20260509210009 55 331 0.0 2.0 0.00 0.00 0.00 75 1015.3
20260509205509 56 331 1.0 2.0 0.00 0.00 0.00 74 1015.3
20260509205008 56 331 1.0 2.0 0.00 0.00 0.00 73 1015.2
20260509204509 56 337 1.0 2.0 0.00 0.00 0.00 73 1015.2
20260509204009 57 355 1.0 2.0 0.00 0.00 0.00 73 1015.3
20260509203509 57 355 2.0 2.0 0.00 0.00 0.00 73 1015.3
20260509203009 56 17 1.0 2.0 0.00 0.00 0.00 74 1015.3
20260509202509 56 17 0.0 1.0 0.00 0.00 0.00 73 1015.3
20260509201009 57 25 0.0 2.0 0.00 0.00 0.00 73 1015.2
20260509195510 58 25 0.0 1.0 0.00 0.00 0.00 72 1015.4
20260509195008 58 23 1.0 2.0 0.00 0.00 0.00 72 1015.4
20260509194509 58 23 0.0 1.0 0.00 0.00 0.00 72 1015.3
20260509194009 57 23 0.0 0.0 0.00 0.00 0.00 75 1015.2
20260509193509 56 23 0.0 0.0 0.00 0.00 0.00 75 1015.1
20260509193009 56 23 1.0 1.0 0.00 0.00 0.00 77 1015.2
20260509192508 56 23 0.0 0.0 0.00 0.00 0.00 77 1015.2
20260509191508 56 23 0.0 2.0 0.00 0.00 0.00 76 1015.2
20260509191009 57 23 0.0 1.0 0.00 0.00 0.00 74 1015.1
20260509190008 58 23 1.0 2.0 0.00 0.00 0.00 72 1015.0
20260509185509 59 23 1.0 3.0 0.00 0.00 0.00 71 1014.9
20260509185012 59 23 1.0 2.0 0.00 0.00 0.00 72 1014.9
20260509184509 59 23 0.0 2.0 0.00 0.00 0.00 71 1014.9
20260509184008 59 23 1.0 3.0 0.00 0.00 0.00 72 1014.9
20260509183509 59 53 0.0 2.0 0.00 0.00 0.00 71 1014.8
20260509182508 60 53 1.0 3.0 0.00 0.00 0.00 70 1014.8
20260509182008 60 23 1.0 3.0 0.00 0.00 0.00 70 1014.8
20260509181508 60 31 1.0 2.0 0.00 0.00 0.00 69 1014.7
20260509181010 61 31 1.0 3.0 0.00 0.00 0.00 69 1014.9
20260509180008 62 34 0.0 2.0 0.00 0.00 0.00 66 1014.8
20260509175008 64 102 3.0 8.0 0.00 0.00 0.00 65 1014.7
20260509174509 64 53 3.0 7.0 0.00 0.00 0.00 64 1014.7
20260509174009 64 84 3.0 7.0 0.00 0.00 0.00 64 1014.7
20260509173008 64 48 3.0 6.0 0.00 0.00 0.00 63 1014.7
20260509172009 65 57 3.0 6.0 0.00 0.00 0.00 63 1014.8
20260509171508 65 63 5.0 9.0 0.00 0.00 0.00 63 1014.9
20260509171011 65 65 4.0 8.0 0.00 0.00 0.00 63 1014.8
20260509170508 65 57 5.0 7.0 0.00 0.00 0.00 63 1014.9
20260509170009 65 67 4.0 10.0 0.00 0.00 0.00 63 1014.9
20260509165509 65 102 2.0 7.0 0.00 0.00 0.00 63 1014.9
20260509165009 65 53 4.0 8.0 0.00 0.00 0.00 61 1015.0
20260509164509 65 46 2.0 6.0 0.00 0.00 0.00 61 1015.0
20260509164008 65 99 3.0 7.0 0.00 0.00 0.00 61 1015.1
20260509163508 66 44 4.0 9.0 0.00 0.00 0.00 60 1015.1
20260509163009 66 71 3.0 6.0 0.00 0.00 0.00 61 1015.2
20260509162009 66 57 5.0 10.0 0.00 0.00 0.00 60 1015.3
20260509161508 66 32 5.0 7.0 0.00 0.00 0.00 62 1015.3
20260509161009 66 32 5.0 9.0 0.00 0.00 0.00 61 1015.3
20260509160008 66 100 3.0 6.0 0.00 0.00 0.00 61 1015.3
20260509155509 66 25 3.0 6.0 0.00 0.00 0.00 61 1015.3
20260509155009 66 74 5.0 10.0 0.00 0.00 0.00 60 1015.4
20260509154512 66 59 2.0 3.0 0.00 0.00 0.00 62 1015.5
20260509154009 66 73 2.0 5.0 0.00 0.00 0.00 61 1015.6
20260509153009 67 63 6.0 10.0 0.00 0.00 0.00 59 1015.6
20260509152509 66 69 3.0 8.0 0.00 0.00 0.00 60 1015.5
20260509152009 67 151 3.0 9.0 0.00 0.00 0.00 58 1015.6
20260509151009 66 94 2.0 6.0 0.00 0.00 0.00 60 1015.5
20260509150508 67 63 3.0 7.0 0.00 0.00 0.00 61 1015.6
20260509150008 67 56 4.0 7.0 0.00 0.00 0.00 60 1015.7
20260509145509 67 74 5.0 10.0 0.00 0.00 0.00 60 1015.7
20260509145009 68 69 6.0 9.0 0.00 0.00 0.00 59 1015.7
20260509144508 67 77 4.0 9.0 0.00 0.00 0.00 60 1015.8
20260509144009 67 58 3.0 10.0 0.00 0.00 0.00 59 1015.7
20260509143508 67 79 4.0 10.0 0.00 0.00 0.00 59 1015.9
20260509143008 67 56 7.0 13.0 0.00 0.00 0.00 59 1015.9
20260509142509 67 104 3.0 7.0 0.00 0.00 0.00 59 1015.9
20260509141508 67 50 5.0 10.0 0.00 0.00 0.00 60 1016.0
20260509141008 67 82 3.0 8.0 0.00 0.00 0.00 61 1016.0
20260509140509 68 46 4.0 10.0 0.00 0.00 0.00 59 1016.0
20260509140008 68 72 7.0 10.0 0.00 0.00 0.00 59 1016.1
20260509135509 68 99 3.0 8.0 0.00 0.00 0.00 58 1016.1
20260509135008 68 23 3.0 7.0 0.00 0.00 0.00 61 1016.1
20260509134508 67 119 2.0 7.0 0.00 0.00 0.00 57 1016.3
20260509134008 67 109 4.0 8.0 0.00 0.00 0.00 61 1016.3
20260509133508 67 145 3.0 8.0 0.00 0.00 0.00 59 1016.4
20260509133009 67 151 4.0 10.0 0.00 0.00 0.00 59 1016.4
20260509132509 67 113 4.0 9.0 0.00 0.00 0.00 61 1016.4
20260509132008 67 74 4.0 8.0 0.00 0.00 0.00 59 1016.5
20260509131509 67 115 6.0 12.0 0.00 0.00 0.00 62 1016.6
20260509131009 67 86 4.0 9.0 0.00 0.00 0.00 60 1016.7
20260509130509 67 112 6.0 12.0 0.00 0.00 0.00 62 1016.8
20260509130009 67 32 3.0 6.0 0.00 0.00 0.00 63 1016.9
20260509125509 66 159 2.0 3.0 0.00 0.00 0.00 60 1017.0
20260509124507 66 44 4.0 10.0 0.00 0.00 0.00 61 1017.1
20260509124005 65 144 1.0 8.0 0.00 0.00 0.00 61 1017.2
20260509123505 64 133 3.0 8.0 0.00 0.00 0.00 63 1017.4
20260509123005 64 124 3.0 6.0 0.00 0.00 0.00 64 1017.4
20260509122504 64 170 3.0 10.0 0.00 0.00 0.00 63 1017.4
20260509121504 66 130 2.0 8.0 0.00 0.00 0.00 61 1017.5
20260509121005 65 152 2.0 8.0 0.00 0.00 0.00 60 1017.6
20260509120005 65 98 2.0 7.0 0.00 0.00 0.00 62 1017.7
20260509115505 65 204 3.0 7.0 0.00 0.00 0.00 62 1017.7
20260509115004 65 141 5.0 12.0 0.00 0.00 0.00 64 1017.7
20260509114505 65 75 2.0 12.0 0.00 0.00 0.00 63 1017.6
20260509114005 65 148 3.0 7.0 0.00 0.00 0.00 65 1017.7
20260509113504 65 157 4.0 10.0 0.00 0.00 0.00 62 1017.7
20260509113005 64 87 6.0 12.0 0.00 0.00 0.00 66 1017.8
20260509112504 64 109 5.0 12.0 0.00 0.00 0.00 64 1017.8
20260509112004 64 144 5.0 8.0 0.00 0.00 0.00 64 1017.9
20260509111504 64 33 5.0 12.0 0.00 0.00 0.00 65 1018.0
20260509111005 64 32 6.0 12.0 0.00 0.00 0.00 66 1018.0
20260509110504 63 168 2.0 7.0 0.00 0.00 0.00 66 1018.0
20260509110006 63 67 3.0 8.0 0.00 0.00 0.00 66 1018.1
20260509105504 63 110 3.0 9.0 0.00 0.00 0.00 66 1018.1